Date,TemperatureHighF,TemperatureAvgF,TemperatureLowF,DewpointHighF,DewpointAvgF,DewpointLowF,HumidityHigh,HumidityAvg,HumidityLow,PressureMaxIn,PressureMinIn,WindSpeedMaxMPH,WindSpeedAvgMPH,GustSpeedMaxMPH,PrecipitationSumIn
2013-1-1,77.0,59.7,45.9,62.0,54.3,45.0,97,84,58,30.22,30.02,13,2,15,0.00
2013-1-2,79.0,62.8,51.2,69.0,59.4,50.0,97,89,71,30.08,29.96,9,2,16,0.02
2013-1-3,62.2,57.0,49.5,60.0,55.1,48.0,95,93,87,30.25,30.06,8,3,15,0.12
2013-1-4,60.5,51.9,46.7,55.0,49.3,45.0,95,91,82,30.33,30.23,9,2,12,0.00
2013-1-5,66.3,52.8,39.5,56.0,48.6,38.0,96,86,69,30.35,30.26,9,2,12,0.00
2013-1-6,65.7,57.3,50.7,59.0,54.7,49.0,95,91,79,30.26,30.12,10,2,11,0.65
2013-1-7,66.1,55.6,46.5,58.0,51.7,44.0,95,87,71,30.29,30.19,17,5,20,0.00
2013-1-8,70.4,61.2,58.0,66.0,58.9,55.0,95,92,84,30.29,30.20,6,2,12,0.05
2013-1-9,74.8,65.2,60.3,70.0,63.2,59.0,96,93,83,30.35,30.24,5,1,8,0.00
2013-1-10,79.2,67.8,59.5,72.0,64.9,58.0,96,90,74,30.36,30.28,6,1,12,0.13
2013-1-11,83.4,68.6,58.7,70.0,64.0,57.0,96,86,56,30.28,30.17,10,2,13,0.00
2013-1-12,81.1,68.0,58.1,71.0,63.5,57.0,96,87,58,30.22,30.11,8,1,12,0.00
2013-1-13,80.5,66.4,55.2,69.0,62.0,54.0,96,86,62,30.18,30.08,6,1,10,0.00
2013-1-14,80.8,67.8,56.5,69.0,62.7,55.0,96,85,62,30.20,30.11,10,2,13,0.00
2013-1-15,81.2,69.2,58.8,70.0,64.3,57.0,95,85,65,30.17,30.06,8,3,14,0.00
2013-1-16,83.2,70.7,59.6,70.0,64.3,58.0,94,81,54,30.10,29.99,10,2,14,0.00
2013-1-17,78.6,59.7,42.7,67.0,54.1,35.0,96,82,65,30.15,29.89,20,5,25,0.00
2013-1-18,60.6,51.7,41.6,50.0,44.0,35.0,88,75,64,30.40,30.15,24,8,28,0.00
2013-1-19,64.1,56.7,50.0,57.0,52.5,46.0,94,86,77,30.37,30.20,18,5,21,0.00
2013-1-20,72.4,59.5,48.4,58.0,52.8,47.0,95,80,53,30.22,30.08,7,1,12,0.00
2013-1-21,72.2,56.6,46.8,56.0,49.6,45.0,96,80,50,30.14,30.02,8,1,11,0.00
2013-1-22,66.4,51.6,38.8,45.0,37.8,34.0,91,63,33,30.31,30.09,10,3,15,0.00
2013-1-23,66.7,35.3,32.5,42.0,-7.1,-99.9,95,42,36,30.42,30.28,8,1,13,0.00
2013-1-24,75.1,56.5,39.8,55.0,48.1,38.0,95,76,45,30.31,30.19,11,2,20,0.00
2013-1-25,76.1,60.1,52.3,61.0,54.2,49.0,94,83,41,30.33,30.17,12,2,12,0.00
2013-1-26,77.7,62.7,48.0,64.0,56.9,46.0,96,82,61,30.24,30.15,8,2,14,0.00
2013-1-27,70.8,62.1,58.1,60.0,57.5,56.0,93,85,69,30.38,30.23,15,4,19,0.03
2013-1-28,74.9,64.0,53.2,66.0,60.3,52.0,96,88,73,30.38,30.27,11,1,16,0.00
2013-1-29,78.0,67.3,57.0,70.0,63.6,56.0,96,88,74,30.27,30.11,12,3,18,0.00
2013-1-30,84.8,74.5,66.8,68.0,66.0,61.0,92,76,57,30.11,29.79,18,6,26,0.06
2013-1-31,63.1,52.5,38.4,56.0,39.7,31.0,92,66,33,30.25,29.89,12,4,22,0.06
2013-2-1,67.6,48.5,32.7,40.0,35.6,31.0,95,66,32,30.33,30.24,10,2,16,0.00
2013-2-2,66.6,48.4,34.9,49.0,39.4,31.0,94,73,46,30.36,30.16,6,2,9,0.00
2013-2-3,70.0,50.2,36.7,46.0,37.9,31.0,96,69,24,30.19,30.04,10,2,15,0.00
2013-2-4,65.7,51.4,36.7,48.0,43.6,35.0,96,77,48,30.14,30.05,5,1,9,0.00
2013-2-5,72.7,56.4,41.3,54.0,47.3,40.0,95,74,39,30.11,30.01,8,1,11,0.00
2013-2-6,71.9,61.6,55.4,61.0,56.6,52.0,91,84,64,30.16,30.05,7,1,9,0.00
2013-2-7,77.4,66.7,60.9,67.0,62.9,58.0,94,87,68,30.11,29.81,14,3,17,0.04
2013-2-8,73.4,63.0,52.4,65.0,56.4,50.0,93,80,58,30.09,29.83,11,4,16,0.00
2013-2-9,67.5,56.9,47.3,56.0,49.5,45.0,95,78,51,30.27,30.09,13,3,20,0.01
2013-2-10,74.0,64.1,50.2,60.0,56.6,48.0,94,78,59,30.32,30.17,16,5,24,0.00
2013-2-11,82.8,70.0,61.4,67.0,62.6,59.0,93,78,54,30.20,30.06,11,3,21,0.00
2013-2-12,83.8,69.8,59.9,70.0,64.6,58.0,94,84,57,30.09,29.88,10,2,22,0.00
2013-2-13,77.1,71.1,64.9,73.0,65.4,52.0,93,83,57,29.93,29.80,13,4,18,0.37
2013-2-14,64.8,53.5,46.7,56.0,49.8,45.0,92,87,69,30.08,29.93,8,2,15,0.12
2013-2-15,67.1,51.9,40.6,53.0,46.0,39.0,95,82,57,30.11,29.99,7,2,12,0.00
2013-2-16,60.4,48.0,40.4,49.0,41.8,24.0,95,81,52,30.14,29.92,19,3,26,0.02
2013-2-17,56.5,41.3,29.1,27.0,21.5,13.0,90,51,19,30.37,30.14,14,4,21,0.00
2013-2-18,62.0,44.2,25.7,44.0,36.2,24.0,95,77,46,30.42,30.24,10,2,16,0.00
2013-2-19,79.6,61.2,41.9,62.0,52.4,40.0,95,76,45,30.24,30.00,18,4,24,0.03
2013-2-20,65.4,55.0,45.6,57.0,43.9,35.0,92,69,36,30.19,30.07,9,2,12,0.00
2013-2-21,70.4,55.8,39.8,59.0,49.0,38.0,96,80,52,30.17,30.06,7,1,10,0.00
2013-2-22,84.1,70.6,60.8,71.0,65.5,59.0,95,84,61,30.09,30.00,16,3,18,0.00
2013-2-23,85.0,74.1,62.2,70.0,66.6,60.0,93,79,54,29.99,29.84,16,4,25,0.32
2013-2-24,77.0,64.6,57.7,65.0,58.3,48.0,95,82,41,30.01,29.85,9,2,11,0.15
2013-2-25,67.1,62.6,57.6,66.0,60.7,55.0,95,93,88,29.96,29.81,12,4,27,2.51
2013-2-26,80.7,69.6,60.8,71.0,63.5,55.0,95,82,46,29.82,29.67,20,5,23,0.54
2013-2-27,72.6,61.2,53.4,55.0,49.6,45.0,85,67,42,29.98,29.83,10,4,18,0.00
2013-2-28,72.5,58.8,43.4,51.0,42.6,-99.9,94,60,37,29.98,29.85,13,-7,26,0.00
2013-3-1,64.2,54.1,47.4,41.0,38.2,35.0,65,56,41,30.00,29.90,13,4,17,0.00
2013-3-2,57.9,47.2,35.2,40.0,33.9,29.0,92,62,39,30.03,29.92,19,6,24,0.00
2013-3-3,48.9,41.1,29.4,33.0,30.1,26.0,89,66,49,30.14,30.00,13,4,22,0.00
2013-3-4,66.8,45.5,28.2,42.0,32.9,26.0,94,68,27,30.23,30.12,11,2,16,0.00
2013-3-5,78.0,59.0,37.6,58.0,45.1,-99.9,94,66,31,30.19,29.89,14,-6,23,0.00
2013-3-6,64.5,53.9,44.0,60.0,37.9,31.0,88,57,31,30.14,29.86,14,6,28,0.03
2013-3-7,63.3,48.8,35.9,47.0,39.3,31.0,93,71,48,30.24,30.14,10,3,14,0.00
2013-3-8,70.0,51.4,37.4,53.0,44.0,36.0,96,79,43,30.25,30.17,11,2,17,0.00
2013-3-9,70.5,54.3,40.0,54.0,46.8,39.0,96,78,50,30.29,30.18,16,2,19,0.00
2013-3-10,74.1,61.2,46.4,62.0,54.1,45.0,96,79,57,30.23,30.15,17,3,20,0.00
2013-3-11,75.4,63.8,50.7,62.0,56.7,49.0,96,79,58,30.15,29.91,13,4,22,0.00
2013-3-12,71.0,65.2,50.9,67.0,60.1,47.0,93,84,56,30.02,29.84,12,4,19,0.05
2013-3-13,74.0,59.5,47.9,46.0,39.2,33.0,89,51,25,30.19,30.02,15,5,19,0.00
2013-3-14,59.9,50.1,38.7,40.0,34.7,29.0,92,57,43,30.31,30.17,14,4,17,0.00
2013-3-15,72.4,52.7,34.9,49.0,41.1,34.0,96,70,32,30.29,30.12,6,2,11,0.00
2013-3-16,82.1,63.1,44.2,56.0,48.7,42.0,93,64,33,30.17,29.99,12,3,21,0.00
2013-3-17,80.1,63.6,44.8,59.0,51.3,43.0,94,68,30,30.13,29.99,14,2,16,0.00
2013-3-18,83.4,69.1,59.7,66.0,61.4,57.0,93,78,52,30.06,29.87,11,2,17,0.00
2013-3-19,84.5,69.3,59.3,65.0,58.5,-99.9,93,73,46,30.02,29.90,11,-10,29,0.00
2013-3-20,69.2,60.1,48.2,58.0,52.6,-99.9,94,79,65,30.02,29.87,19,-8,25,0.05
2013-3-21,70.3,53.2,40.1,47.0,38.2,27.0,95,64,21,29.96,29.86,10,3,17,0.01
2013-3-22,65.7,56.9,42.5,51.0,43.9,38.0,91,64,43,30.07,29.94,9,3,18,0.00
2013-3-23,71.9,60.9,52.8,67.0,58.5,50.0,95,92,83,30.01,29.80,14,1,22,2.29
2013-3-24,86.0,72.3,62.6,74.0,66.6,61.0,95,83,55,29.81,29.53,13,6,27,0.38
2013-3-25,67.9,60.5,50.1,63.0,40.4,28.0,87,51,25,30.03,29.62,15,7,30,0.38
2013-3-26,58.9,47.8,39.6,33.0,26.6,-99.9,72,47,33,30.26,30.04,19,-16,24,0.00
2013-3-27,64.3,47.6,34.5,42.0,34.0,29.0,92,62,34,30.31,30.21,12,3,17,0.00
2013-3-28,69.0,49.3,35.1,46.0,38.9,34.0,95,72,28,30.31,30.22,11,2,19,0.00
2013-3-29,75.3,54.8,39.4,52.0,42.9,38.0,96,71,27,30.34,30.22,8,1,14,0.00
2013-3-30,80.4,60.0,41.3,55.0,47.6,40.0,96,70,29,30.27,30.11,13,3,18,0.00
2013-3-31,84.6,67.1,48.4,58.0,53.4,45.0,92,65,39,30.14,29.97,12,3,19,0.00
2013-4-1,83.4,68.0,60.4,71.0,62.5,58.0,93,83,55,30.00,29.89,11,2,21,0.20
2013-4-2,78.1,64.2,52.7,60.0,54.5,49.0,96,74,40,30.13,29.98,10,2,15,0.21
2013-4-3,78.1,63.6,52.0,66.0,58.8,50.0,96,86,62,30.11,30.03,10,2,18,0.23
2013-4-4,78.5,69.7,64.9,71.0,64.0,-99.9,94,84,72,30.07,29.86,12,-9,21,0.36
2013-4-5,67.5,59.4,53.0,64.0,56.8,51.0,93,91,88,30.03,29.82,11,2,16,0.14
2013-4-6,70.6,60.5,50.1,59.0,54.7,48.0,94,82,66,30.18,30.03,15,3,19,0.00
2013-4-7,76.2,66.7,57.1,65.0,59.5,55.0,95,79,60,30.21,30.10,13,3,20,0.00
2013-4-8,80.0,66.7,53.7,68.0,60.9,52.0,95,83,61,30.18,30.09,14,2,16,0.00
2013-4-9,80.3,67.8,58.5,70.0,62.8,57.0,95,85,66,30.20,30.10,13,2,19,0.00
2013-4-10,81.1,69.6,56.8,71.0,64.3,55.0,95,84,68,30.16,30.02,12,2,20,0.01
2013-4-11,83.2,74.6,69.4,75.0,69.9,66.0,92,85,73,30.01,29.82,19,6,24,0.01
2013-4-12,88.0,76.1,69.9,75.0,69.7,66.0,92,81,58,29.88,29.76,16,4,26,0.00
2013-4-13,80.9,70.4,57.4,68.0,57.8,52.0,91,67,41,30.02,29.88,13,2,15,0.00
2013-4-14,76.7,64.9,56.2,67.0,61.2,54.0,95,88,71,30.02,29.89,10,2,16,1.12
2013-4-15,86.2,70.3,60.4,71.0,65.0,59.0,95,84,56,30.13,29.85,8,2,16,0.01
2013-4-16,81.2,70.8,63.4,70.0,65.9,62.0,98,86,63,30.20,30.10,13,2,15,0.00
2013-4-17,78.1,69.7,62.3,69.0,65.7,62.0,99,88,69,30.19,30.11,11,2,14,0.00
2013-4-18,82.6,72.4,62.5,72.0,66.8,62.0,99,84,59,30.11,29.98,12,3,16,0.00
2013-4-19,89.8,76.4,71.3,74.0,70.4,66.0,94,83,49,30.02,29.88,15,4,23,0.29
2013-4-20,66.8,56.6,50.5,64.0,53.1,48.0,96,88,76,30.20,29.99,8,3,17,0.52
2013-4-21,67.7,64.1,57.8,63.0,58.5,52.0,93,82,74,30.21,30.11,17,6,25,0.04
2013-4-22,65.4,62.5,59.7,63.0,59.4,55.0,96,90,77,30.16,30.05,19,7,25,0.16
2013-4-23,71.0,64.0,54.3,59.0,56.5,53.0,96,77,61,30.18,30.07,14,4,20,0.00
2013-4-24,80.3,65.9,51.8,68.0,59.1,51.0,99,81,53,30.17,30.10,11,2,15,0.00
2013-4-25,86.0,70.8,57.3,69.0,63.2,57.0,99,79,49,30.21,30.11,9,1,11,0.00
2013-4-26,78.9,69.2,59.5,67.0,62.3,56.0,95,80,61,30.30,30.17,12,3,21,0.00
2013-4-27,80.8,70.4,59.5,65.0,61.9,58.0,98,77,49,30.27,30.18,11,3,14,0.00
2013-4-28,79.7,71.8,63.0,66.0,64.4,62.0,97,78,58,30.18,30.01,19,4,22,0.00
2013-4-29,82.7,71.1,64.1,71.0,64.8,62.0,97,82,53,30.04,29.93,10,2,19,0.67
2013-4-30,80.8,69.8,62.2,71.0,65.6,61.0,99,87,63,30.05,29.95,13,2,15,0.00
2013-5-1,76.6,69.0,63.0,69.0,65.3,62.0,98,88,76,30.08,29.99,18,5,24,0.00
2013-5-2,70.0,68.0,66.1,68.0,66.7,65.0,98,95,92,30.04,29.92,13,4,27,3.48
2013-5-3,69.4,67.0,64.9,66.0,64.4,61.0,97,91,78,29.93,29.84,19,8,29,1.58
2013-5-4,69.8,67.7,64.8,69.0,65.6,60.0,97,93,76,29.85,29.71,18,7,27,0.96
2013-5-5,78.6,68.1,59.6,69.0,57.6,48.0,98,74,36,29.89,29.72,15,4,22,0.33
2013-5-6,74.2,64.6,55.2,57.0,49.9,45.0,95,62,37,29.99,29.86,11,3,16,0.00
2013-5-7,78.2,66.4,53.4,60.0,54.8,51.0,95,68,45,30.03,29.91,14,4,22,0.00
2013-5-8,82.5,68.1,55.0,65.0,58.3,54.0,98,75,38,30.11,30.00,10,2,16,0.00
2013-5-9,84.0,71.5,60.3,66.0,61.2,57.0,98,73,40,30.14,30.08,10,2,14,0.00
2013-5-10,85.3,72.4,58.7,69.0,63.6,58.0,99,77,44,30.14,30.00,11,3,18,0.00
2013-5-11,88.6,74.4,66.8,72.0,67.6,65.0,97,81,50,30.06,29.92,13,2,24,0.01
2013-5-12,86.2,74.8,66.2,69.0,64.8,59.0,97,73,46,30.03,29.93,11,3,17,0.00
2013-5-13,79.9,68.9,56.5,59.0,49.8,40.0,93,55,25,30.15,30.00,15,3,18,0.00
2013-5-14,78.2,64.4,48.8,54.0,49.7,41.0,95,64,28,30.25,30.16,9,2,12,0.00
2013-5-15,83.7,67.3,52.9,62.0,55.5,52.0,98,71,36,30.24,30.09,10,2,16,0.00
2013-5-16,84.5,71.7,58.5,69.0,63.0,57.0,98,76,50,30.14,30.04,11,3,17,0.00
2013-5-17,84.7,72.4,60.3,69.0,64.8,59.0,98,79,48,30.12,30.05,11,2,17,0.00
2013-5-18,84.9,74.5,64.4,74.0,68.8,64.0,99,84,58,30.14,30.04,13,3,17,0.15
2013-5-19,85.4,74.8,67.2,74.0,70.0,66.0,98,86,66,30.11,30.02,11,3,18,0.02
2013-5-20,82.1,74.6,68.4,74.0,70.6,67.0,97,88,66,30.11,30.03,8,2,14,0.04
2013-5-21,84.0,74.8,67.5,75.0,70.3,67.0,99,86,67,30.07,29.97,13,2,18,0.00
2013-5-22,83.2,73.8,65.9,75.0,70.1,65.0,99,88,69,30.01,29.92,9,1,11,0.00
2013-5-23,87.2,76.2,67.7,73.0,69.7,67.0,99,82,56,29.98,29.91,9,2,12,0.06
2013-5-24,90.3,77.8,67.1,69.0,63.0,52.0,98,67,28,30.11,29.94,13,3,21,0.00
2013-5-25,81.3,72.4,59.7,64.0,57.4,53.0,97,62,39,30.27,30.11,13,3,17,0.00
2013-5-26,83.4,69.7,56.8,63.0,56.5,51.0,99,68,34,30.25,30.16,8,1,14,0.00
2013-5-27,82.7,70.9,57.6,69.0,62.5,57.0,98,77,56,30.23,30.15,12,2,16,0.00
2013-5-28,81.2,75.7,67.0,70.0,66.3,63.0,90,73,63,30.20,30.13,14,4,22,0.00
2013-5-29,84.6,77.9,72.9,74.0,71.5,68.0,89,81,69,30.19,30.11,15,4,17,0.00
2013-5-30,84.5,78.2,73.4,74.0,72.6,71.0,94,83,69,30.19,30.11,11,4,21,0.14
2013-5-31,83.6,77.5,71.5,75.0,71.6,70.0,94,82,69,30.17,30.10,18,4,23,0.00
2013-6-1,83.7,78.3,74.5,74.0,71.9,70.0,89,80,67,30.11,30.04,14,4,21,0.00
2013-6-2,84.1,78.5,73.0,76.0,73.9,72.0,97,86,73,30.07,29.90,14,4,20,0.00
2013-6-3,93.6,77.4,71.1,77.0,72.8,70.0,98,87,51,29.97,29.87,12,2,32,3.21
2013-6-4,85.6,75.9,70.4,77.0,73.0,70.0,99,91,69,30.03,29.94,10,1,15,1.08
2013-6-5,81.8,74.4,71.7,74.0,71.9,71.0,97,92,72,30.02,29.94,7,1,11,0.05
2013-6-6,77.6,73.8,70.9,76.0,72.6,70.0,99,96,88,29.95,29.57,17,5,26,1.43
2013-6-7,88.8,78.7,71.3,75.0,71.5,69.0,97,80,58,29.92,29.59,16,5,22,0.05
2013-6-8,91.3,79.4,72.0,78.0,72.9,70.0,97,82,50,30.08,29.92,10,2,15,0.01
2013-6-9,85.6,77.5,71.5,77.0,73.4,70.0,97,87,71,30.13,30.05,12,2,20,0.02
2013-6-10,89.0,79.7,72.4,78.0,74.3,71.0,98,84,61,30.11,30.01,11,2,19,0.00
2013-6-11,91.9,81.1,72.9,76.0,73.2,71.0,98,79,55,30.09,30.00,10,2,16,0.01
2013-6-12,97.1,83.2,72.2,77.0,73.6,71.0,97,75,44,30.06,29.96,10,2,13,0.00
2013-6-13,96.8,84.3,75.3,80.0,75.4,72.0,95,76,47,30.00,29.85,11,2,16,0.01
2013-6-14,91.9,80.1,71.6,78.0,74.3,67.0,97,83,60,29.94,29.80,10,3,23,0.15
2013-6-15,85.8,80.0,73.5,74.0,69.9,68.0,98,72,58,30.10,29.94,13,4,18,0.01
2013-6-16,86.5,79.0,69.3,75.0,71.1,67.0,95,77,63,30.13,30.06,10,2,17,0.00
2013-6-17,90.7,81.0,74.4,80.0,75.4,73.0,97,84,65,30.09,29.96,10,2,18,0.02
2013-6-18,94.3,82.4,70.9,75.0,71.9,69.0,98,74,47,30.04,29.91,11,2,18,0.00
2013-6-19,94.9,81.5,71.3,78.0,73.4,70.0,97,78,46,30.04,29.93,12,3,23,1.01
2013-6-20,84.3,77.5,71.5,79.0,73.7,71.0,98,88,74,30.11,29.99,9,1,16,0.01
2013-6-21,87.5,77.7,71.5,76.0,72.9,71.0,98,86,65,30.14,30.05,10,2,15,0.00
2013-6-22,86.9,76.5,72.4,77.0,73.4,71.0,98,90,64,30.14,30.08,8,1,14,1.53
2013-6-23,89.0,79.4,71.0,77.0,74.0,70.0,99,85,63,30.17,30.09,11,2,15,0.00
2013-6-24,89.0,80.3,72.2,77.0,74.4,71.0,99,83,61,30.20,30.11,14,2,18,0.00
2013-6-25,90.9,80.0,72.0,78.0,73.9,71.0,98,83,54,30.18,30.06,9,2,14,0.00
2013-6-26,91.8,78.8,71.7,79.0,73.8,69.0,98,85,52,30.10,30.01,12,1,18,0.01
2013-6-27,94.1,79.9,71.0,80.0,73.9,70.0,96,83,54,30.03,29.89,8,2,20,0.20
2013-6-28,91.9,80.9,75.9,77.0,73.9,71.0,96,80,53,29.94,29.79,12,3,22,0.00
2013-6-29,86.9,79.8,75.7,76.0,74.2,71.0,94,83,64,29.82,29.75,11,3,18,0.31
2013-6-30,90.9,77.6,73.3,77.0,73.7,71.0,96,88,59,29.87,29.78,12,2,26,0.47
2013-7-1,85.6,74.8,71.4,77.0,72.4,70.0,98,92,72,30.03,29.84,23,3,27,1.79
2013-7-2,85.7,75.1,71.6,77.0,73.1,71.0,98,94,74,30.11,30.00,15,2,19,0.34
2013-7-3,86.3,78.2,71.3,79.0,74.6,70.0,99,89,74,30.15,30.08,13,3,25,0.03
2013-7-4,86.2,79.4,73.9,78.0,74.5,72.0,95,85,74,30.18,30.11,20,4,26,0.00
2013-7-5,86.8,79.1,72.1,79.0,74.3,71.0,98,86,72,30.19,30.12,19,3,26,0.00
2013-7-6,86.3,79.3,73.1,77.0,74.6,72.0,98,86,70,30.16,30.09,15,4,19,0.00
2013-7-7,86.8,79.8,71.3,78.0,74.7,70.0,99,85,70,30.17,30.10,12,2,17,0.00
2013-7-8,87.8,79.3,71.7,78.0,74.6,71.0,99,86,69,30.19,30.12,11,2,14,0.00
2013-7-9,88.5,79.6,72.3,78.0,73.9,71.0,99,84,62,30.19,30.09,11,2,17,0.00
2013-7-10,88.6,79.3,70.0,78.0,73.4,69.0,99,83,63,30.12,29.98,12,2,17,0.01
2013-7-11,90.9,80.0,73.0,78.0,73.6,71.0,96,81,56,30.03,29.89,11,2,18,0.00
2013-7-12,89.2,77.1,72.8,78.0,73.3,71.0,98,89,66,29.95,29.88,9,1,12,0.10
2013-7-13,87.9,76.9,70.6,78.0,73.3,70.0,99,89,70,30.02,29.91,10,1,16,0.39
2013-7-14,85.9,76.7,70.7,76.0,73.0,70.0,99,89,69,30.14,29.99,13,2,17,0.00
2013-7-15,87.1,78.5,71.3,80.0,74.8,70.0,99,89,73,30.18,30.11,9,2,21,0.23
2013-7-16,88.1,81.6,76.3,79.0,76.1,74.0,94,84,71,30.22,30.15,14,3,16,0.00
2013-7-17,88.9,81.0,74.6,78.0,75.2,73.0,98,83,66,30.22,30.11,10,2,14,0.00
2013-7-18,89.1,79.7,71.3,78.0,74.1,71.0,99,84,63,30.15,30.07,9,2,14,0.00
2013-7-19,89.7,78.7,71.3,76.0,72.6,70.0,97,82,59,30.13,30.04,13,2,18,0.01
2013-7-20,90.0,76.6,71.4,78.0,72.4,70.0,97,88,59,30.11,30.02,11,1,19,0.43
2013-7-21,92.2,78.4,71.7,77.0,73.3,71.0,97,85,54,30.11,30.02,17,2,27,0.04
2013-7-22,91.9,78.5,73.8,77.0,74.3,71.0,97,88,55,30.12,30.02,14,2,27,0.20
2013-7-23,90.2,79.0,73.4,78.0,74.2,72.0,95,86,66,30.03,29.92,15,3,18,0.00
2013-7-24,87.6,78.8,73.6,77.0,73.6,70.0,96,84,68,29.92,29.81,14,3,17,0.08
2013-7-25,91.5,80.2,72.6,77.0,74.0,71.0,96,83,56,29.96,29.83,8,2,14,0.03
2013-7-26,90.1,81.1,73.1,80.0,76.4,73.0,99,87,67,30.03,29.94,7,2,14,0.01
2013-7-27,90.7,79.6,73.1,79.0,74.9,71.0,99,86,58,30.01,29.89,10,1,17,0.02
2013-7-28,90.6,78.3,72.7,80.0,74.8,72.0,99,89,66,30.05,29.92,6,1,12,0.12
2013-7-29,88.4,78.4,70.2,79.0,73.8,69.0,99,87,66,30.16,30.03,8,2,17,0.00
2013-7-30,91.9,81.5,74.0,80.0,75.9,73.0,98,84,63,30.18,30.10,7,1,11,0.00
2013-7-31,90.1,77.6,72.2,79.0,74.7,71.0,98,91,66,30.13,30.05,6,1,15,0.20
2013-8-1,90.7,75.7,71.2,77.0,72.6,69.0,98,91,60,30.05,29.95,10,1,21,0.81
2013-8-2,91.0,79.2,70.6,79.0,74.2,70.0,99,86,61,30.04,29.95,11,2,16,0.00
2013-8-3,92.5,81.0,72.9,79.0,75.7,72.0,99,85,61,30.06,29.98,10,2,14,0.06
2013-8-4,95.5,83.4,76.7,80.0,76.7,74.0,96,82,50,30.05,29.93,10,2,14,0.01
2013-8-5,93.5,84.0,77.4,81.0,77.8,76.0,97,82,59,30.00,29.92,11,2,12,0.00
2013-8-6,89.4,82.2,77.2,80.0,77.6,76.0,97,86,69,30.00,29.91,10,3,15,0.00
2013-8-7,88.8,82.9,78.9,79.0,77.0,76.0,93,83,70,30.02,29.95,9,2,15,0.00
2013-8-8,89.6,80.9,75.3,80.0,76.8,74.0,99,88,67,30.07,29.97,11,2,16,0.08
2013-8-9,91.7,82.6,75.1,80.0,76.6,74.0,98,83,63,30.09,29.99,10,2,13,0.00
2013-8-10,90.8,82.1,74.0,80.0,76.3,73.0,99,84,61,30.15,30.07,12,2,16,0.00
2013-8-11,94.5,83.0,74.9,80.0,76.4,74.0,98,81,56,30.17,30.08,6,1,14,0.00
2013-8-12,94.4,83.6,75.0,80.0,76.0,72.0,97,79,57,30.13,30.00,17,2,17,0.00
2013-8-13,96.8,84.2,74.7,79.0,75.9,73.0,95,78,51,30.03,29.90,9,2,13,0.00
2013-8-14,97.4,81.8,72.5,79.0,75.2,70.0,97,82,48,30.00,29.87,12,2,18,0.21
2013-8-15,92.3,79.1,72.9,79.0,74.3,71.0,98,86,55,30.05,29.93,11,2,16,0.10
2013-8-16,90.2,77.2,71.5,77.0,73.6,71.0,98,90,60,30.07,29.95,14,1,21,0.41
2013-8-17,86.0,79.0,74.1,79.0,76.2,74.0,99,91,71,30.11,30.01,8,1,15,0.10
2013-8-18,88.7,80.9,74.5,81.0,77.1,74.0,99,89,71,30.14,30.06,12,2,17,0.01
2013-8-19,90.0,81.2,74.8,80.0,76.9,74.0,99,87,69,30.11,29.99,9,1,14,0.02
2013-8-20,90.0,81.8,73.5,79.0,76.5,73.0,99,85,67,30.13,30.03,12,2,17,0.00
2013-8-21,89.4,80.9,76.2,80.0,77.0,74.0,97,88,69,30.18,30.09,10,1,14,0.07
2013-8-22,81.8,76.8,72.0,79.0,74.8,71.0,98,93,80,30.18,30.03,12,1,19,1.40
2013-8-23,84.0,76.9,73.6,81.0,75.7,73.0,99,96,84,30.06,30.00,4,0,12,0.75
2013-8-24,83.8,78.0,73.5,79.0,75.2,73.0,99,91,79,30.15,30.03,10,1,11,0.00
2013-8-25,84.1,77.7,72.8,77.0,73.9,71.0,99,88,72,30.21,30.13,13,4,23,1.23
2013-8-26,88.0,80.7,74.8,77.0,74.4,72.0,92,82,62,30.19,30.08,10,4,17,0.02
2013-8-27,87.4,79.1,71.9,75.0,71.8,69.0,97,80,56,30.11,30.02,8,1,13,0.00
2013-8-28,87.7,77.5,68.3,73.0,70.2,68.0,99,80,58,30.07,29.98,8,1,12,0.00
2013-8-29,94.3,81.7,69.9,76.0,71.3,68.0,97,73,43,30.02,29.91,11,2,15,0.00
2013-8-30,94.7,82.1,74.0,78.0,74.1,72.0,97,78,48,29.97,29.87,7,1,15,0.00
2013-8-31,91.8,79.6,72.8,80.0,74.3,69.0,98,85,61,29.96,29.87,10,1,14,0.00
2013-9-1,92.9,79.6,72.1,80.0,73.7,71.0,98,84,52,29.98,29.88,9,2,13,1.16
2013-9-2,92.5,78.8,71.6,80.0,74.1,71.0,99,87,53,30.00,29.89,10,1,12,0.52
2013-9-3,91.6,81.4,73.1,78.0,75.0,73.0,99,82,58,30.00,29.90,7,1,12,0.01
2013-9-4,92.8,81.5,73.3,80.0,74.9,70.0,99,82,56,30.08,29.98,8,1,15,0.00
2013-9-5,94.1,81.4,73.6,80.0,75.3,73.0,97,83,56,30.10,30.01,6,1,11,0.00
2013-9-6,90.5,78.9,72.6,79.0,74.3,71.0,98,86,62,30.06,30.00,9,1,14,0.00
2013-9-7,89.6,79.6,71.1,76.0,72.4,70.0,98,80,58,30.04,29.96,14,3,15,0.00
2013-9-8,88.4,78.2,68.9,73.0,70.6,68.0,99,79,53,30.00,29.93,8,2,15,0.00
2013-9-9,88.3,78.6,68.9,75.0,71.1,68.0,99,80,58,30.08,29.96,9,2,14,0.00
2013-9-10,88.6,81.3,72.7,75.0,71.9,70.0,96,74,57,30.15,30.05,9,3,18,0.00
2013-9-11,89.2,79.9,71.7,78.0,73.7,71.0,98,82,64,30.13,30.05,12,3,16,0.00
2013-9-12,88.4,77.8,71.7,78.0,73.4,71.0,98,87,60,30.06,29.91,8,1,14,0.12
2013-9-13,93.5,80.2,70.6,76.0,72.4,70.0,99,79,46,29.92,29.78,9,1,12,0.00
2013-9-14,94.6,80.6,71.6,80.0,73.9,70.0,98,82,45,30.01,29.82,8,1,15,0.19
2013-9-15,91.2,81.1,72.0,79.0,75.0,71.0,99,82,61,30.10,29.99,11,2,15,0.00
2013-9-16,90.0,81.1,72.5,79.0,75.4,72.0,99,83,64,30.10,30.01,8,2,13,0.00
2013-9-17,87.3,78.9,72.7,79.0,74.4,72.0,99,87,69,30.12,30.01,11,3,21,0.26
2013-9-18,83.2,76.3,72.5,76.0,72.4,70.0,98,88,71,30.11,30.03,14,4,24,2.30
2013-9-19,85.6,78.5,70.7,77.0,71.6,68.0,97,80,63,30.10,30.03,10,2,16,0.08
2013-9-20,86.0,75.9,68.7,74.0,70.3,68.0,98,84,61,30.06,29.94,9,1,14,0.02
2013-9-21,88.8,76.7,66.6,75.0,70.3,66.0,99,82,55,29.96,29.76,7,2,14,0.00
2013-9-22,82.4,76.0,72.2,75.0,72.2,70.0,96,88,77,29.85,29.74,9,2,15,0.09
2013-9-23,81.5,75.2,71.5,77.0,73.0,70.0,98,92,79,29.97,29.84,3,0,7,0.10
2013-9-24,83.4,75.5,71.5,77.0,73.7,71.0,99,94,80,29.96,29.82,7,1,10,0.50
2013-9-25,83.9,77.1,73.6,76.0,74.2,73.0,98,91,75,29.83,29.75,10,1,15,0.01
2013-9-26,78.5,73.8,69.5,75.0,71.5,68.0,98,92,82,29.91,29.74,10,2,14,0.11
2013-9-27,79.1,73.3,67.4,73.0,69.4,66.0,96,88,77,30.01,29.88,12,4,23,0.34
2013-9-28,77.3,74.6,71.6,71.0,69.1,67.0,93,83,75,30.08,29.97,13,4,20,0.03
2013-9-29,81.6,74.8,68.6,72.0,69.4,67.0,98,83,71,30.03,29.97,14,4,18,0.90
2013-9-30,81.9,74.6,67.9,70.0,66.5,63.0,96,77,57,30.05,29.95,11,2,17,0.00
2013-10-1,81.8,73.2,66.5,71.0,65.6,64.0,94,78,58,30.11,30.02,12,2,13,0.00
2013-10-2,82.5,71.2,62.3,71.0,64.5,-99.9,99,83,62,30.11,30.06,11,-9,16,0.00
2013-10-3,86.2,75.1,66.8,76.0,71.4,66.0,99,89,71,30.11,30.04,8,1,13,0.00
2013-10-4,87.0,77.4,69.1,78.0,73.0,69.0,99,87,68,30.11,30.04,9,2,13,0.00
2013-10-5,84.6,76.5,69.2,77.0,72.6,69.0,99,88,73,30.09,30.01,7,2,16,0.00
2013-10-6,87.0,78.0,71.4,78.0,74.4,71.0,99,89,72,30.01,29.88,9,1,14,0.07
2013-10-7,89.0,76.0,70.8,78.0,72.9,70.0,99,91,57,29.88,29.77,4,0,11,1.02
2013-10-8,80.1,72.9,67.5,75.0,71.0,66.0,98,93,85,30.01,29.78,14,4,24,0.19
2013-10-9,73.8,64.3,60.9,65.0,62.4,60.0,98,93,74,30.10,30.00,11,3,16,0.04
2013-10-10,83.0,69.4,61.0,68.0,63.5,61.0,99,83,49,30.08,29.98,12,1,12,0.01
2013-10-11,84.4,70.8,60.5,68.0,62.8,60.0,99,79,46,30.05,29.94,8,1,13,0.01
2013-10-12,87.2,71.5,60.6,67.0,62.7,59.0,99,78,39,30.05,29.97,6,1,14,0.00
2013-10-13,86.3,71.7,61.4,71.0,64.5,61.0,99,80,46,30.10,30.02,7,2,16,0.00
2013-10-14,76.6,69.9,65.6,71.0,67.1,65.0,97,91,78,30.08,30.00,10,3,19,0.10
2013-10-15,72.9,70.4,67.8,70.0,68.4,67.0,98,93,88,30.01,29.95,17,5,22,0.44
2013-10-16,82.1,73.4,66.4,73.0,68.7,65.0,96,86,71,30.00,29.94,8,2,13,0.00
2013-10-17,86.7,73.6,64.9,75.0,69.0,64.0,99,87,58,29.99,29.91,7,1,11,0.01
2013-10-18,89.1,76.2,67.1,76.0,71.0,67.0,99,85,55,30.00,29.91,10,1,12,0.00
2013-10-19,88.6,77.4,70.5,77.0,72.9,70.0,98,87,60,29.96,29.86,12,1,14,0.08
2013-10-20,79.4,71.9,66.8,72.0,66.1,64.0,98,83,63,30.01,29.90,10,3,14,0.00
2013-10-21,82.9,73.7,67.9,76.0,71.3,67.0,99,92,77,30.04,29.96,12,2,16,0.02
2013-10-22,78.2,74.1,70.8,76.0,72.6,70.0,98,95,86,29.98,29.82,6,1,10,0.85
2013-10-23,76.7,66.5,54.4,70.0,58.9,50.0,99,79,44,30.05,29.82,11,2,17,0.04
2013-10-24,72.2,60.1,53.3,57.0,49.9,42.0,97,71,46,30.19,30.04,8,2,13,0.00
2013-10-25,74.7,60.9,50.6,55.0,51.3,48.0,99,74,45,30.27,30.18,8,2,15,0.00
2013-10-26,71.5,60.2,50.6,59.0,53.0,47.0,96,78,60,30.27,30.14,8,2,12,0.00
2013-10-27,74.6,59.0,47.1,55.0,49.9,44.0,99,77,37,30.18,30.11,8,1,10,0.01
2013-10-28,77.9,63.5,51.9,65.0,57.5,51.0,99,83,59,30.23,30.12,9,1,12,0.00
2013-10-29,78.0,66.6,56.9,67.0,61.5,56.0,99,85,63,30.29,30.20,11,2,18,0.00
2013-10-30,80.5,69.5,59.6,69.0,63.8,59.0,99,83,64,30.28,30.18,12,1,18,0.00
2013-10-31,83.1,72.8,63.9,72.0,67.6,63.0,99,85,62,30.17,30.00,12,2,16,0.00
2013-11-1,83.2,75.2,67.2,72.0,69.1,66.0,97,82,62,30.01,29.83,11,3,17,0.00
2013-11-2,75.7,65.9,55.7,72.0,63.4,55.0,98,92,66,29.97,29.78,13,1,15,2.63
2013-11-3,71.4,61.7,51.2,59.0,51.0,46.0,98,70,42,30.20,29.96,15,4,21,0.00
2013-11-4,74.3,67.2,58.8,65.0,59.0,50.0,95,76,61,30.27,30.18,17,6,27,0.27
2013-11-5,71.9,67.7,64.8,68.0,65.5,63.0,96,92,85,30.27,30.19,17,6,30,0.12
2013-11-6,79.8,70.7,65.1,72.0,67.5,64.0,97,89,70,30.19,30.09,10,3,14,0.01
2013-11-7,80.7,70.6,65.6,69.0,66.2,64.0,98,87,60,30.08,29.98,8,1,10,0.00
2013-11-8,68.9,61.0,51.9,64.0,52.4,45.0,85,73,65,30.22,30.03,18,5,21,0.00
2013-11-9,77.5,67.6,62.4,64.0,59.7,54.0,96,77,56,30.25,30.17,10,3,17,0.00
2013-11-10,75.7,65.4,56.8,68.0,61.2,56.0,98,87,62,30.23,30.14,12,1,17,0.00
2013-11-11,77.5,65.2,55.1,64.0,60.3,55.0,99,86,57,30.21,30.13,9,2,12,0.01
2013-11-12,77.0,67.0,59.4,65.0,59.8,49.0,96,79,48,30.15,30.04,14,2,21,0.00
2013-11-13,60.0,52.1,49.1,48.0,43.1,39.0,83,72,65,30.43,30.16,19,8,32,0.00
2013-11-14,68.1,58.1,44.7,59.0,53.0,42.0,96,83,71,30.39,30.23,12,3,19,0.00
2013-11-15,67.3,61.8,54.1,66.0,60.6,53.0,98,96,87,30.24,30.08,5,0,10,0.06
2013-11-16,77.5,68.0,60.0,69.0,65.1,60.0,99,91,70,30.19,30.11,11,2,13,0.01
2013-11-17,78.4,71.1,66.4,73.0,69.0,66.0,98,93,81,30.12,30.01,4,0,8,0.17
2013-11-18,80.9,71.7,66.0,75.0,69.8,66.0,99,94,77,30.03,29.90,6,1,12,0.18
2013-11-19,70.6,64.3,54.8,70.0,56.7,46.0,98,76,64,30.05,29.91,15,5,23,0.00
2013-11-20,70.2,64.9,62.0,66.0,62.5,59.0,98,92,83,30.20,30.03,13,4,20,0.32
2013-11-21,76.1,66.7,63.6,69.0,64.8,63.0,98,93,79,30.26,30.17,10,3,15,0.04
2013-11-22,78.4,67.8,60.0,70.0,64.9,59.0,99,91,67,30.26,30.14,7,0,11,0.01
2013-11-23,83.3,68.2,57.1,68.0,63.3,57.0,99,86,52,30.15,30.02,9,1,14,0.05
2013-11-24,64.0,57.2,52.7,60.0,48.3,41.0,91,73,58,30.36,30.08,18,7,27,0.00
2013-11-25,70.7,63.6,54.8,61.0,55.4,45.0,82,75,62,30.34,30.12,14,4,21,0.00
2013-11-26,75.8,69.8,66.3,72.0,67.3,60.0,97,92,80,30.12,29.70,14,3,21,0.77
2013-11-27,70.8,54.9,39.2,70.0,49.7,32.0,97,83,69,30.23,29.61,19,6,28,0.13
2013-11-28,58.6,44.3,33.3,46.0,37.9,29.0,92,79,60,30.42,30.23,13,4,16,0.00
2013-11-29,62.4,53.1,42.3,54.0,48.4,41.0,97,85,69,30.45,30.38,14,4,20,0.00
2013-11-30,59.6,56.8,54.0,57.0,54.8,51.0,95,93,88,30.39,30.24,15,5,24,0.01
2013-12-1,69.5,59.0,54.0,62.0,56.0,53.0,97,90,75,30.24,30.00,10,2,11,0.00
2013-12-2,67.4,56.7,49.0,57.0,53.5,48.0,98,89,66,30.00,29.84,5,1,10,0.00
2013-12-3,75.5,59.5,46.8,62.0,55.3,46.0,99,87,60,29.98,29.90,8,1,10,0.01
2013-12-4,80.6,65.8,56.1,69.0,62.1,55.0,99,89,60,30.11,29.96,5,1,9,0.00
2013-12-5,85.2,68.3,55.4,70.0,63.0,55.0,99,85,52,30.18,30.09,9,1,14,0.01
2013-12-6,83.8,70.8,60.7,72.0,66.0,60.0,99,86,60,30.17,30.10,10,1,17,0.00
2013-12-7,84.1,71.5,64.1,71.0,67.2,63.0,99,87,60,30.23,30.14,12,1,13,0.00
2013-12-8,68.6,64.1,61.8,65.0,63.1,61.0,99,96,88,30.27,30.16,6,1,10,0.00
2013-12-9,83.1,69.8,60.0,71.0,66.1,60.0,99,89,62,30.19,30.08,11,2,19,0.01
2013-12-10,80.1,67.3,52.8,70.0,63.6,46.0,98,88,65,30.27,30.04,12,3,17,0.22
2013-12-11,64.7,56.9,48.0,60.0,52.8,45.0,93,86,77,30.31,30.23,14,4,20,0.00
2013-12-12,65.6,55.6,47.2,51.0,41.6,31.0,83,62,29,30.38,30.25,10,3,17,0.00
2013-12-13,68.7,54.5,43.9,57.0,50.3,42.0,97,86,66,30.34,30.15,10,2,18,0.00
2013-12-14,77.0,65.6,52.8,69.0,63.3,52.0,99,92,75,30.14,29.89,15,2,19,0.53
2013-12-15,66.2,59.4,47.5,65.0,56.5,43.0,98,90,74,30.17,29.86,14,3,20,0.37
2013-12-16,60.0,46.7,37.9,47.0,41.1,35.0,97,82,55,30.27,30.16,6,2,17,0.00
2013-12-17,69.5,49.4,37.9,50.0,41.5,37.0,99,79,31,30.29,30.18,9,1,11,0.00
2013-12-18,65.2,48.8,38.9,44.0,38.5,28.0,98,74,25,30.31,30.20,8,2,18,0.01
2013-12-19,72.9,53.0,37.9,60.0,48.6,37.0,99,87,60,30.32,30.22,5,1,10,0.00
2013-12-20,75.7,59.5,46.4,64.0,55.3,46.0,99,87,61,30.23,30.15,5,0,10,0.01
2013-12-21,81.5,68.5,55.2,70.0,64.5,55.0,99,88,65,30.15,30.04,13,4,21,0.00
2013-12-22,83.7,73.9,68.7,72.0,69.2,67.0,98,86,63,30.14,30.07,10,3,23,0.00
2013-12-23,84.4,73.3,64.2,72.0,68.7,62.0,97,86,62,30.16,30.05,10,3,20,0.01
2013-12-24,62.8,54.4,45.0,60.0,43.4,33.0,94,69,38,30.32,30.13,15,5,21,0.02
2013-12-25,63.6,51.4,40.2,55.0,47.4,35.0,93,86,69,30.31,30.25,15,5,22,0.00
2013-12-26,56.6,53.6,50.7,55.0,50.2,47.0,96,88,78,30.30,30.19,9,4,14,0.00
2013-12-27,60.3,56.8,52.3,56.0,53.7,51.0,94,89,82,30.33,30.23,13,4,19,0.00
2013-12-28,69.2,64.1,59.0,67.0,61.3,53.0,97,90,81,30.30,30.00,10,3,16,0.14
2013-12-29,72.7,68.2,57.3,70.0,66.1,56.0,97,93,88,30.01,29.89,12,3,20,0.63
2013-12-30,66.8,55.6,47.6,56.0,49.5,46.0,97,82,52,30.21,30.01,10,2,15,0.00
2013-12-31,63.5,55.9,52.7,52.0,50.0,47.0,97,81,59,30.34,30.20,10,2,12,0.00
2014-1-1,60.0,56.5,52.8,59.0,55.0,50.0,98,94,87,30.32,30.09,5,1,9,0.81
2014-1-2,63.9,59.3,53.3,63.0,58.4,48.0,99,97,82,30.09,29.76,19,2,25,1.07